Hauptseite
METAR-TAF:

METAR-TAF

Flughäfen :

Flugplatz Oberpfaffenhofen

Oberpfaffenhofen, Deutschland

Breite: 48-05N, Länge: 011-17E, Höhe: 600 m

Beobachtung

Neuester Wetterbericht von vor 34 Minuten, um 06:20 UTC
Wind 10 kt aus Südwest
Temperatur 15°C
Luftfeuchtigkeit 59%
Luftdruck 1024 hPa
Sichtweite 10 km oder mehr

METAR: EDMO 140620Z AUTO 22010KT 9999 // NCD 15/07 Q1024

Zeit: 08:54 (06:54 UTC)


TAF: fehlend

Wetterbeobachtungen und Prognosen von mehr als 4000 Flughäfen (METAR und TAF Bericht).

Die verfügbaren Stationen werden durch gelbe und rote Markierungen auf der Karte dargestellt.

Führen Sie die Maus auf sie, um den Namen der Station zu sehen.

Darauf klicken, um die Beobachtung von Wetterbeobachtungen und Prognosen zu sehen.

Um die Karte zu ändern : klicken Sie auf den grünen Tasten mit einem schwarzen Kreuz Zum Vergrößern, auf den grünen Button mit einem Gedankenstrich zu verkleinern, oder auf die grünen Pfeile für benachbarte Karten.


METAR-TAF: